Location: Unspecified
(0.0000°N, 0.0000°E)
Time: 09:27:30
(UTC+00:00)

Vanguard 2 - Pass Details

Date: 21 October 2021
Orbit: 554 x 2936 km, 32.9° (Epoch: 06 December)

Event Time Altitude Azimuth Distance (km) Brightness Sun altitude
Rises 00:19:50 0° 250° (WSW) 6,744 12.3 -76.2°
Enters shadow 00:19:57 - 250° (WSW) 6,717 12.3 -76.2°
Reaches altitude 10° 00:24:55 10° 256° (WSW) 5,593 - -75.3°
Maximum altitude 00:39:49 43° 321° (NW) 2,859 - -72.6°
Drops below altitude 10° 00:49:54 10° 30° (NNE) 3,828 - -70.6°
Sets 00:52:44 0° 38° (NE) 4,515 - -70.0°
